Weather in Kurkino

Russia / Tula Oblast     53°25′45″N   38°39′44″E
temp.,
°C
wind,
m/s
gust,
m/s
humid.,
%
clouds,
%
prec.,
mm/h
press.,
hPa
HPBL,
m
29 june, wed
wed2900:00+14ene38785 0.0 1021166
03:00+12ene35742 0.0 102181
06:00+13ene36780 0.0 1022168
09:00+17ene45600 0.0 1022540
12:00+19ene44504 0.0 10221506
15:00+20ene33495 0.0 10211609
18:00+20ne225617 0.0 10201547
21:00+15e226999 0.0 102011
30 june, thu
thu3000:00+13ene01690 0.0 102010
03:00+12nnw11740 0.0 102010
06:00+14nw23780 0.0 101982
09:00+18nnw34655 0.0 1019590
12:00+21n45525 0.0 10191540
15:00+21n56511 0.0 10171818
18:00+20n3663100 0.0 1017636
21:00+16nw35712 0.0 101758
1 july, fri
fri100:00+13nnw36800 0.0 101788
03:00+12nnw37771 0.0 1018107
06:00+13nnw36800 0.0 1018153
09:00+18nne68651 0.0 1018743
12:00+20nne69520 0.0 10191754
15:00+19nne68492 0.0 10191888
18:00+19nne47560 0.0 10191450
21:00+14n33660 0.0 102030
2 july, sat
sat200:00+11e11800 0.0 102111
03:00+11wnw11760 0.0 102110
06:00+12nw368045 0.0 1021150
09:00+18nnw466064 0.0 1020529
12:00+21n45495 0.0 10191278
15:00+23nw46479 0.0 10171488
18:00+22wnw376551 0.1 1016489
21:00+18wnw5129053 0.7 1015279
3 july, sun
sun300:00+17nw410945 0.1 1015180
03:00+16nnw48940 0.1 1014130
06:00+17nnw48920 0.0 1015217
09:00+21nne56720 0.0 1015574
12:00+23n57580 0.0 10151306
15:00+24n57545 0.0 10151630
18:00+24nne3564100 0.0 1015637
21:00+19wnw117482 0.0 101511